[[{"header":{"parameterUnit":"m.s-1","parameterCategory":1,"la1":30.2991,"la2":30.254,"lo1":-89.0895,"lo2":-89.0444,"dy":0.0017,"dx":0.0017,"nx":28,"ny":28,"refTime":"2025-07-19T21:00:00:Z","depth":0,"parameterNumber":2,"parameterNumberName":"U-component_of_WINDS"},"data":[0,0,0,0,0,0,0,0,0,0,0,0,0,0,0,0,0,0,0,0,0,0,0,0,0,0,0,0,0,0,0,0,0,0,0,0,0,0,0,0,0,0,0,0,0,0,0,0,0,0,0,0,0,0,0,0,0,0,1.3544,1.3545,0,1.3676,1.3677,1.3679,1.3714,1.3713,1.3713,1.3712,1.3851,1.3856,1.386,0,0,0,0,0,0,0,0,0,0,0,0,0,1.3327,1.3331,1.3544,1.3545,1.3547,1.3675,1.3677,1.3679,1.3714,1.3713,1.3712,1.3711,1.385,1.3855,1.3861,0,0,0,0,0,0,0,0,0,0,0,0,0,1.3436,1.3332,1.3544,1.358,1.3585,1.3675,1.3677,1.3679,1.3714,1.3713,1.3712,1.3711,1.3848,1.3855,1.3861,1.3926,0,0,1.3882,1.3885,0,0,0,0,0,0,0,0,1.343,1.3444,1.3573,1.3578,1.3583,1.3677,1.3652,1.3762,1.3715,1.3665,1.3712,1.371,1.3795,1.3806,1.3833,1.3933,1.3939,1.3882,1.3886,1.3889,1.3891,0,0,0,0,0,0,0,1.3423,1.3439,1.3596,1.3575,1.3581,1.3591,1.3605,1.3673,1.3735,1.367,1.3672,1.3687,1.3797,1.3827,1.3837,1.3941,1.3882,1.3888,1.3892,1.3895,1.41,1.4102,0,0,0,0,0,0,1.3408,1.3432,1.3592,1.36,1.3502,1.3596,1.3612,1.3648,1.3734,1.3746,1.3688,1.3688,1.3816,1.3829,1.3842,1.3923,1.3889,1.3895,1.3899,1.4099,1.4101,1.4102,0,0,0,0,0,0,1.3403,1.3422,1.3587,1.3517,1.3539,1.3601,1.3641,1.3651,1.3681,1.3748,1.376,1.3706,1.3815,1.3832,1.3905,1.3929,1.3898,1.3904,1.4097,1.4099,1.4101,1.4087,0,0,0,0,0,0,1.3397,1.342,1.3444,1.3517,1.3542,1.3646,1.3643,1.3655,1.3692,1.3693,1.3769,1.378,1.3816,1.3894,1.3911,1.3937,1.391,1.4095,1.4098,1.4101,1.4085,1.4088,1.409,0,0,0,0,0,1.3389,1.3436,1.3445,1.3464,1.3574,1.3647,1.3662,1.37,1.3693,1.3719,1.3762,1.3778,1.3923,1.3901,1.3921,1.3949,1.4094,1.4097,1.4101,1.4084,1.4088,1.409,0,0,0,0,0,0,1.3366,1.3446,1.3457,1.3529,1.3581,1.3653,1.3686,1.3703,1.3759,1.3758,1.3805,1.3822,1.3891,1.3927,1.3902,1.4017,1.4009,1.4016,1.399,1.3994,1.3996,1.3986,1.3915,0,0,0,0,0,1.3369,1.342,1.3488,1.3545,1.357,1.3624,1.3657,1.3682,1.3738,1.3761,1.381,1.3865,1.3923,1.396,1.4018,1.4091,1.4108,1.412,1.4122,1.4124,1.413,1.4172,1.4178,1.4113,1.4113,1.4113,0,0,1.3376,1.3426,1.3456,1.3542,1.3585,1.3638,1.3642,1.3699,1.3739,1.377,1.3841,1.3878,1.3943,1.4016,1.4051,1.4049,1.4152,1.4128,1.4129,1.4134,1.4175,1.4182,1.4187,1.4115,1.4115,1.4114,0,0,1.3416,1.3459,1.3511,1.3553,1.3618,1.3653,1.3665,1.3735,1.3761,1.3832,1.3857,1.3906,1.4005,1.405,1.4086,1.4143,1.416,1.4161,1.4174,1.4214,1.4219,1.4224,1.4244,1.4251,1.4166,1.4166,1.4166,0,1.3417,1.3497,1.3536,1.3591,1.3628,1.3657,1.371,1.375,1.3831,1.3857,1.3853,1.3977,1.4023,1.4107,1.412,1.4149,1.4165,1.4152,1.4215,1.422,1.4225,1.4245,1.4253,1.4166,1.4166,1.4166,1.4166,0,1.3496,1.3551,1.3585,1.366,1.3702,1.3756,1.3803,1.3841,1.3862,1.3898,1.3971,1.4026,1.4095,1.4117,1.4139,1.4204,1.4201,1.4205,1.4199,1.423,1.425,1.4258,1.4165,1.4166,1.4166,1.4166,0,0,1.3525,1.362,1.3632,1.3667,1.374,1.3784,1.384,1.3905,1.3937,1.3991,1.404,1.4123,1.4127,1.4168,1.4196,1.423,1.4272,1.4231,1.4234,1.4237,1.4347,1.4343,1.4351,1.4283,1.4285,1.4286,1.4341,0,1.3575,1.3673,1.3709,1.3791,1.3843,1.3871,1.392,1.3971,1.4006,1.4056,1.4096,1.4153,1.4155,1.418,1.4215,1.4259,1.4295,1.4256,1.433,1.4332,1.4312,1.4361,1.4357,1.4407,1.4349,1.4351,1.4352,0,1.3645,1.3699,1.3785,1.3852,1.3875,1.3918,1.3981,1.4028,1.4087,1.411,1.4155,1.418,1.424,1.423,1.4314,1.4287,1.4319,1.4345,1.4348,1.4357,1.4343,1.4371,1.4423,1.4431,1.4364,1.4363,1.4362,0,1.3658,1.3752,1.3816,1.3844,1.3924,1.3953,1.3988,1.4045,1.4082,1.4138,1.4163,1.4225,1.426,1.4308,1.435,1.4338,1.4431,1.4423,1.4452,1.4451,1.4471,1.4469,1.4529,1.4491,1.4491,1.4491,1.4491,0,1.3709,1.3761,1.3822,1.3862,1.3921,1.3962,1.402,1.4057,1.4108,1.4155,1.4184,1.4229,1.4281,1.4333,1.4366,1.4431,1.4446,1.4468,1.4476,1.4465,1.4462,1.4487,1.4485,1.4493,1.4493,1.4492,1.4492,0,1.3733,1.3776,1.3848,1.3916,1.3935,1.3975,1.4035,1.4075,1.4111,1.4171,1.4188,1.4245,1.4307,1.4353,1.4434,1.4457,1.4526,1.4535,1.4505,1.451,1.4536,1.4533,1.4614,1.4627,1.458,1.4581,1.4581,0,1.3763,1.3803,1.3876,1.3909,1.3943,1.3997,1.4034,1.4077,1.4115,1.4185,1.4216,1.428,1.4333,1.4432,1.4481,1.4544,1.4554,1.4578,1.4564,1.4551,1.4554,1.4551,1.4556,1.458,1.458,1.4581,1.4581,0,1.3811,1.383,1.3883,1.3943,1.3986,1.4036,1.4086,1.4112,1.4164,1.4206,1.4269,1.431,1.4392,1.4455,1.4522,1.456,1.4579,1.4585,1.4595,1.4584,1.4566,1.4576,1.4511,1.4583,1.4583,1.4583,1.4582,1.4582,1.3839,1.3876,1.3933,1.399,1.4032,1.4078,1.4119,1.4159,1.4212,1.4281,1.4304,1.4369,1.4427,1.4519,1.4557,1.4609,1.4609,1.4623,1.4627,1.463,1.4629,1.4557,1.4622,1.4622,1.4622,1.4622,1.4622,0,1.3889,1.3926,1.3979,1.4047,1.4093,1.4106,1.4162,1.4199,1.4256,1.4308,1.4359,1.4431,1.4493,1.4547,1.4611,1.4643,1.4653,1.4658,1.4656,1.4664,1.4626,1.461,1.4648,1.4648,1.4648,1.4648,1.4648,1.4648,1.392,1.3983,1.4009,1.4093,1.4131,1.4194,1.4225,1.4268,1.431,1.4389,1.4439,1.4473,1.4527,1.4595,1.4652,1.4666,1.4689,1.4691,1.4708,1.467,1.4667,1.4664,1.465,1.4696,1.4696,1.4742,1.4743,1.4743]},{"header":{"parameterUnit":"m.s-1","parameterCategory":1,"la1":30.2991,"la2":30.254,"lo1":-89.0895,"lo2":-89.0444,"dy":0.0017,"dx":0.0017,"nx":28,"ny":28,"refTime":"2025-07-19T21:00:00:Z","depth":0,"parameterNumber":3,"parameterNumberName":"V-component_of_WINDS"},"data":[0,0,0,0,0,0,0,0,0,0,0,0,0,0,0,0,0,0,0,0,0,0,0,0,0,0,0,0,0,0,0,0,0,0,0,0,0,0,0,0,0,0,0,0,0,0,0,0,0,0,0,0,0,0,0,0,0,0,3.0188,3.0188,0,3.0204,3.0204,3.0205,3.0224,3.0224,3.0225,3.0225,3.0239,3.0239,3.0239,0,0,0,0,0,0,0,0,0,0,0,0,0,3.0169,3.0169,3.0188,3.0188,3.0188,3.0204,3.0204,3.0205,3.0224,3.0224,3.0225,3.0225,3.0239,3.0239,3.0239,0,0,0,0,0,0,0,0,0,0,0,0,0,3.018,3.0169,3.0188,3.02,3.0201,3.0204,3.0204,3.0205,3.0224,3.0224,3.0225,3.0225,3.0239,3.0239,3.0239,3.023,0,0,3.0239,3.0239,0,0,0,0,0,0,0,0,3.0179,3.0181,3.0198,3.0199,3.02,3.0213,3.0203,3.0213,3.0224,3.0215,3.0225,3.0225,3.0229,3.023,3.0232,3.0231,3.0232,3.0239,3.0239,3.0239,3.0239,0,0,0,0,0,0,0,3.0179,3.018,3.0194,3.0198,3.02,3.0203,3.0205,3.0205,3.0219,3.0216,3.0217,3.0219,3.023,3.0232,3.0233,3.0232,3.0239,3.0239,3.0239,3.0239,3.0222,3.0221,0,0,0,0,0,0,3.0177,3.0179,3.0194,3.0195,3.0191,3.0203,3.0205,3.0208,3.0219,3.0222,3.0219,3.022,3.0232,3.0233,3.0233,3.0222,3.0239,3.0239,3.0239,3.0222,3.0221,3.0221,0,0,0,0,0,0,3.0176,3.0178,3.0193,3.0187,3.019,3.0203,3.0206,3.0208,3.021,3.0222,3.0224,3.0218,3.0232,3.0233,3.0231,3.0223,3.0239,3.024,3.0223,3.0222,3.0221,3.0202,0,0,0,0,0,0,3.0175,3.0177,3.0176,3.0187,3.019,3.0191,3.0205,3.0208,3.0211,3.0213,3.0222,3.0224,3.0232,3.023,3.0231,3.0224,3.024,3.0223,3.0222,3.0221,3.0203,3.02,3.0198,0,0,0,0,0,3.0175,3.0169,3.0175,3.0177,3.0188,3.0191,3.0192,3.0203,3.021,3.0207,3.0214,3.0224,3.0224,3.023,3.0231,3.0223,3.0224,3.0223,3.0222,3.0204,3.0201,3.0198,0,0,0,0,0,0,3.0156,3.0171,3.0178,3.0177,3.0182,3.0194,3.0192,3.02,3.0203,3.0204,3.0217,3.0219,3.0214,3.0219,3.0225,3.0214,3.0225,3.0224,3.0212,3.0209,3.0206,3.0205,3.024,0,0,0,0,0,3.0152,3.0154,3.0167,3.0164,3.0167,3.0178,3.018,3.0188,3.0194,3.0196,3.0203,3.0208,3.0209,3.0209,3.0211,3.0204,3.0205,3.0199,3.0197,3.0194,3.0193,3.0187,3.0184,3.0217,3.0217,3.0217,0,0,3.0143,3.0151,3.0152,3.0161,3.0166,3.0166,3.018,3.0181,3.0181,3.0196,3.0194,3.0199,3.0205,3.0199,3.0197,3.0203,3.0184,3.0193,3.0191,3.0191,3.0185,3.0182,3.018,3.0216,3.0216,3.0216,0,0,3.0127,3.0134,3.0132,3.0137,3.0145,3.0153,3.0152,3.0162,3.0166,3.0164,3.0175,3.0174,3.0176,3.0179,3.0181,3.0163,3.0171,3.0164,3.015,3.0144,3.0142,3.0139,3.0131,3.0128,3.0162,3.0162,3.0162,0,3.0115,3.0117,3.013,3.0129,3.0131,3.0145,3.0142,3.0146,3.0153,3.0154,3.016,3.0162,3.0167,3.0161,3.0156,3.0158,3.0156,3.0162,3.0141,3.0139,3.0137,3.0129,3.0126,3.0161,3.0161,3.0161,3.0161,0,3.0101,3.0102,3.0099,3.0106,3.0108,3.0106,3.0116,3.0117,3.0124,3.013,3.0126,3.0132,3.0134,3.0134,3.0141,3.0128,3.0131,3.0139,3.015,3.0133,3.0125,3.0123,3.016,3.016,3.016,3.0161,0,0,3.0074,3.0087,3.0086,3.0088,3.0097,3.0098,3.0095,3.0098,3.0097,3.0101,3.0098,3.0098,3.0105,3.0107,3.0114,3.0109,3.0091,3.0117,3.0117,3.011,3.0075,3.0068,3.0065,3.0097,3.0096,3.0096,3.0074,0,3.0059,3.0057,3.0067,3.0061,3.0061,3.0073,3.007,3.0074,3.0079,3.0079,3.0084,3.0083,3.0093,3.0094,3.009,3.0095,3.0084,3.0096,3.0092,3.0092,3.0089,3.0062,3.0055,3.0034,3.0072,3.0071,3.0071,0,3.0041,3.0044,3.0039,3.0046,3.0046,3.0044,3.0045,3.0045,3.0049,3.0053,3.0054,3.0062,3.0057,3.0068,3.0061,3.0069,3.0067,3.0069,3.0069,3.0068,3.008,3.0058,3.0028,3.0024,3.0067,3.0067,3.0068,0,3.002,3.0023,3.002,3.0022,3.003,3.0028,3.0031,3.0035,3.0035,3.0036,3.0036,3.0037,3.0036,3.0035,3.0042,3.005,3.0033,3.0045,3.0034,3.0034,3.003,3.003,2.9997,3.0031,3.0031,3.0031,3.0031,0,3.0002,2.9997,3.001,3.0008,3.0002,3.0013,3.0006,3.0011,3.0014,3.0011,3.0021,3.0018,3.0028,3.0025,3.003,3.0022,3.0022,3.0024,3.0025,3.0022,3.0022,3.0021,3.0022,3.003,3.0031,3.0031,3.0031,0,2.9978,2.9987,2.9983,2.9991,2.9993,2.9988,2.9994,2.9991,2.9996,2.9992,2.9992,2.9999,2.9996,3.0003,3.0001,3.0004,2.9992,2.9996,2.9991,2.9992,2.998,2.998,2.9944,2.9939,2.9978,2.9977,2.9977,0,2.9965,2.9962,2.9969,2.9968,2.9971,2.9969,2.9969,2.9979,2.9978,2.998,2.9976,2.9974,2.9973,2.9967,2.9971,2.9969,2.9972,2.9959,2.9971,2.9968,2.9969,2.9969,2.9967,2.9957,2.9956,2.9956,2.9955,0,2.9941,2.9944,2.9945,2.9945,2.9945,2.9946,2.9947,2.9946,2.9955,2.9953,2.9951,2.9949,2.9947,2.9943,2.9941,2.9943,2.995,2.9952,2.9949,2.9945,2.9941,2.9941,2.9982,2.9952,2.9953,2.9953,2.9953,2.9953,2.9921,2.9918,2.9922,2.992,2.9922,2.9923,2.992,2.9924,2.9922,2.9921,2.9926,2.9921,2.9922,2.9921,2.9921,2.9916,2.9921,2.9918,2.9916,2.9915,2.9912,2.9943,2.9916,2.9916,2.9916,2.9916,2.9916,0,2.9895,2.9898,2.9897,2.9899,2.9897,2.9905,2.9906,2.9903,2.9899,2.99,2.9898,2.9893,2.989,2.9893,2.9889,2.9884,2.9887,2.9883,2.9883,2.9882,2.9909,2.9911,2.9881,2.9881,2.9881,2.9881,2.9881,2.9881,2.9882,2.9876,2.988,2.9874,2.9877,2.9873,2.9872,2.9872,2.9872,2.9867,2.9864,2.9866,2.9867,2.9863,2.9859,2.986,2.9857,2.9851,2.9853,2.9877,2.9881,2.9884,2.9886,2.9851,2.9851,2.9827,2.9826,2.9826]}]]